Weather in Novinki

Russia / Nizhny Novgorod Oblast'     56°12′17″N   43°52′47″E
temp.,
°C
wind,
m/s
gust,
m/s
humid.,
%
clouds,
%
prec.,
mm/h
press.,
hPa
HPBL,
m
9 may, sun
sun900:00+11se51291100 0.0 1007406
03:00+11sse51481100 0.0 1006553
06:00+11sse51390100 0.7 1006538
09:00+14sse61278100 1.0 1005703
12:00+15s3685100 1.9 1006535
15:00+14s51290100 7.8 1007802
18:00+12w4697100 6.1 1008359
21:00+10nw5995100 9.9 1011481
10 may, mon
mon1000:00+8nw5995100 0.0 1014427
03:00+7nnw41093100 0.1 1017512
06:00+7nnw5991100 0.1 1020530
09:00+7nnw5887100 0.1 1022660
12:00+8nne4786100 0.1 1024583
15:00+9nne4781100 0.1 1025630
18:00+10nne4877100 0.0 1026636
21:00+7ne3889100 0.0 1027354
11 may, tue
tue1100:00+7nne3991100 0.0 1028297
03:00+6nne3993100 0.0 1028281
06:00+7ne4108862 0.0 1029301
09:00+13ne46681 0.0 1029522
12:00+18ene45573 0.0 1028853
15:00+21ene45525 0.0 10281141
18:00+20ne366333 0.0 1028590
21:00+15ene3882100 0.0 1028182
12 may, wed
wed1200:00+14ene31087100 0.0 1028239
03:00+12ene3109123 0.0 1028223
06:00+13ene388942 0.0 1028203
09:00+19ese476594 0.0 1028561
12:00+23ese474791 0.0 10281649
15:00+24ese584420 0.0 10272339
18:00+22ese58575 0.0 10261005
21:00+17ese367483 0.0 1026145
13 may, thu
thu1300:00+15ese3873100 0.0 1026210
03:00+15ese2772100 0.0 1026193
06:00+16ese286961 0.0 1026256
09:00+20se585399 0.0 1026776
12:00+23se68418 0.0 10251349
15:00+24se694448 0.0 10241378
18:00+21se5105793 0.2 1023745
21:00+18se41170100 0.2 1024364